When you browse on this site, cookies collect data to enhance your experience and personalize the content and advertising you see.
Visit our Privacy Policy to learn more. By continuing to use the site, you agree to this use of cookies and data.
  • In Hungary
  • List of Countries
  • For 7 days
  • Water Temperature
  • Satellite Maps
  • Weather Map
  • News
  • Weather Widgets
  • user-avatar
    Login

    Hourly Weather Kerchik

    Today, 16 November, Friday

    Time Temperature Precipitation Wind Pressure Humidity
    00:00 -4°C° 0.4 mm 8 mps 754 mmHg 83%
    01:00 -4°C° 0.3 mm 8 mps 754 mmHg 83%
    02:00 -5°C° 0.3 mm 8 mps 754 mmHg 84%
    03:00 -6°C° 0 mm 7 mps 754 mmHg 80%
    04:00 -6°C° 0.3 mm 7 mps 754 mmHg 80%
    05:00 -6°C° 0.3 mm 7 mps 754 mmHg 79%
    06:00 -6°C° 0.3 mm 7 mps 754 mmHg 79%
    07:00 -6°C° 0.1 mm 8 mps 755 mmHg 80%
    08:00 -6°C° 0.1 mm 8 mps 755 mmHg 80%
    09:00 -6°C° 0 mm 8 mps 755 mmHg 79%
    10:00 -6°C° 0.1 mm 8 mps 755 mmHg 81%
    11:00 -5°C° 0.1 mm 8 mps 755 mmHg 84%
    12:00 -5°C° 0.1 mm 8 mps 756 mmHg 86%
    13:00 -5°C° 0.2 mm 8 mps 756 mmHg 87%
    14:00 -5°C° 0.2 mm 8 mps 756 mmHg 88%
    15:00 -5°C° 0.2 mm 8 mps 756 mmHg 89%
    16:00 -5°C° 0.3 mm 8 mps 756 mmHg 89%
    17:00 -5°C° 0.3 mm 8 mps 756 mmHg 90%
    18:00 -5°C° 0.3 mm 8 mps 756 mmHg 91%
    19:00 -4°C° 0.3 mm 7 mps 756 mmHg 89%
    20:00 -4°C° 0.3 mm 7 mps 756 mmHg 88%
    21:00 -4°C° 0.3 mm 7 mps 756 mmHg 87%
    22:00 -4°C° 0.1 mm 7 mps 756 mmHg 85%
    23:00 -4°C° 0.1 mm 7 mps 756 mmHg 83%

    Tomorrow, 17 November, Saturday

    Time Temperature Precipitation Wind Pressure Humidity
    00:00 -4°C° 0.1 mm 7 mps 756 mmHg 82%
    01:00 -4°C° 0.1 mm 6 mps 756 mmHg 81%
    02:00 -4°C° 0.1 mm 6 mps 756 mmHg 81%
    03:00 -4°C° 0.1 mm 6 mps 756 mmHg 80%
    04:00 -5°C° 0 mm 6 mps 756 mmHg 80%
    05:00 -5°C° 0 mm 6 mps 756 mmHg 79%
    06:00 -5°C° 0 mm 6 mps 756 mmHg 78%
    07:00 -5°C° 0 mm 6 mps 756 mmHg 79%
    08:00 -5°C° 0 mm 6 mps 756 mmHg 80%
    09:00 -5°C° 0 mm 5 mps 757 mmHg 81%
    10:00 -4°C° 0.1 mm 5 mps 757 mmHg 82%
    11:00 -4°C° 0.1 mm 5 mps 756 mmHg 83%
    12:00 -4°C° 0.1 mm 5 mps 756 mmHg 84%
    13:00 -4°C° 0 mm 5 mps 756 mmHg 84%
    14:00 -3°C° 0 mm 4 mps 756 mmHg 84%
    15:00 -2°C° 0 mm 4 mps 756 mmHg 85%
    16:00 -3°C° 0 mm 4 mps 755 mmHg 84%
    17:00 -2°C° 0 mm 3 mps 755 mmHg 83%
    18:00 -4°C° 0 mm 3 mps 755 mmHg 82%
    19:00 -4°C° 0 mm 3 mps 755 mmHg 81%
    20:00 -3°C° 0 mm 2 mps 755 mmHg 80%
    21:00 -3°C° 0 mm 2 mps 754 mmHg 80%
    22:00 -3°C° 0 mm 2 mps 754 mmHg 79%
    23:00 -4°C° 0 mm 2 mps 754 mmHg 78%

    Day after tomorrow, 18 November, Sunday

    Time Temperature Precipitation Wind Pressure Humidity
    00:00 -4°C° 0 mm 2 mps 753 mmHg 77%
    01:00 -4°C° 0 mm 2 mps 753 mmHg 76%
    02:00 -5°C° 0 mm 2 mps 753 mmHg 76%
    03:00 -5°C° 0 mm 2 mps 752 mmHg 76%
    04:00 -3°C° 0 mm 1 mps 752 mmHg 76%
    05:00 -3°C° 0 mm 1 mps 751 mmHg 76%
    06:00 -3°C° 0 mm 1 mps 751 mmHg 76%
    07:00 -2°C° 0 mm 1 mps 751 mmHg 76%
    08:00 -2°C° 0 mm 1 mps 751 mmHg 75%
    09:00 -2°C° 0 mm 1 mps 751 mmHg 75%
    10:00 -2°C° 0 mm 0 mps 750 mmHg 75%
    11:00 -1°C° 0 mm 0 mps 750 mmHg 75%
    12:00 0°C° 0 mm 0 mps 750 mmHg 75%
    13:00 0°C° 0 mm 0 mps 750 mmHg 77%
    14:00 0°C° 0 mm 0 mps 749 mmHg 79%
    15:00 0°C° 0 mm 0 mps 749 mmHg 81%
    16:00 -1°C° 0 mm 0 mps 749 mmHg 82%
    17:00 -2°C° 0 mm 0 mps 749 mmHg 82%
    18:00 -3°C° 0 mm 0 mps 749 mmHg 82%
    19:00 -3°C° 0 mm 0 mps 749 mmHg 83%
    20:00 -2°C° 0 mm 1 mps 749 mmHg 84%
    21:00 -1°C° 0 mm 1 mps 749 mmHg 84%
    22:00 -2°C° 0 mm 1 mps 749 mmHg 85%
    23:00 -2°C° 0 mm 1 mps 749 mmHg 86%

    19 November, Monday

    Time Temperature Precipitation Wind Pressure Humidity
    00:00 -2°C° 0 mm 1 mps 749 mmHg 87%
    01:00 -2°C° 0 mm 1 mps 749 mmHg 88%
    02:00 -2°C° 0 mm 1 mps 749 mmHg 90%
    03:00 -2°C° 0 mm 1 mps 749 mmHg 91%
    04:00 -2°C° 0 mm 1 mps 749 mmHg 91%
    05:00 -2°C° 0 mm 1 mps 749 mmHg 92%
    06:00 -3°C° 0 mm 2 mps 749 mmHg 93%
    07:00 -3°C° 0 mm 2 mps 749 mmHg 94%
    08:00 -2°C° 0 mm 2 mps 750 mmHg 95%
    09:00 -2°C° 0 mm 2 mps 750 mmHg 95%
    10:00 -1°C° 0 mm 3 mps 750 mmHg 96%
    11:00 -1°C° 0 mm 3 mps 750 mmHg 96%
    12:00 0°C° 0 mm 3 mps 750 mmHg 97%
    13:00 0°C° 0 mm 3 mps 750 mmHg 96%
    14:00 0°C° 0 mm 3 mps 750 mmHg 96%
    15:00 -1°C° 0 mm 4 mps 750 mmHg 95%
    16:00 -2°C° 0 mm 4 mps 750 mmHg 94%
    17:00 -3°C° 0 mm 4 mps 750 mmHg 92%
    18:00 -3°C° 0 mm 4 mps 750 mmHg 90%
    19:00 -3°C° 0 mm 4 mps 750 mmHg 86%
    20:00 -3°C° 0 mm 4 mps 751 mmHg 83%
    21:00 -3°C° 0 mm 4 mps 751 mmHg 79%
    22:00 -3°C° 0 mm 4 mps 751 mmHg 79%
    23:00 -4°C° 0 mm 5 mps 751 mmHg 79%

    20 November, Tuesday

    Time Temperature Precipitation Wind Pressure Humidity
    00:00 -4°C° 0 mm 5 mps 751 mmHg 79%
    01:00 -4°C° 0 mm 5 mps 751 mmHg 81%
    02:00 -2°C° 0 mm 5 mps 751 mmHg 84%
    03:00 -2°C° 0 mm 5 mps 751 mmHg 87%
    04:00 -2°C° 0 mm 5 mps 751 mmHg 88%
    05:00 -3°C° 0 mm 6 mps 751 mmHg 88%
    06:00 -2°C° 0 mm 7 mps 750 mmHg 89%
    07:00 -2°C° 0 mm 7 mps 751 mmHg 88%
    08:00 -2°C° 0 mm 7 mps 751 mmHg 87%
    09:00 -2°C° 0 mm 7 mps 751 mmHg 86%
    10:00 -2°C° 0 mm 7 mps 751 mmHg 86%
    11:00 -2°C° 0 mm 7 mps 750 mmHg 86%
    12:00 -1°C° 0 mm 7 mps 750 mmHg 86%
    13:00 -1°C° 0.2 mm 7 mps 750 mmHg 87%
    14:00 -1°C° 0.2 mm 7 mps 750 mmHg 88%
    15:00 -1°C° 0.2 mm 6 mps 750 mmHg 89%
    16:00 -1°C° 1.2 mm 6 mps 749 mmHg 91%
    17:00 -1°C° 1.2 mm 6 mps 749 mmHg 92%
    18:00 -1°C° 1.2 mm 6 mps 749 mmHg 93%
    19:00 0°C° 0.5 mm 5 mps 749 mmHg 94%
    20:00 0°C° 0.5 mm 5 mps 749 mmHg 95%
    21:00 +1°C° 0.5 mm 5 mps 749 mmHg 96%
    22:00 +1°C° 0.1 mm 4 mps 749 mmHg 96%
    23:00 +1°C° 0.1 mm 4 mps 749 mmHg 97%

    21 November, Wednesday

    Time Temperature Precipitation Wind Pressure Humidity
    00:00 +1°C° 0.1 mm 4 mps 749 mmHg 97%
    01:00 +2°C° 0 mm 3 mps 749 mmHg 97%
    02:00 +2°C° 0 mm 3 mps 748 mmHg 97%
    03:00 +2°C° 0 mm 3 mps 748 mmHg 98%
    04:00 +2°C° 0 mm 3 mps 748 mmHg 98%
    05:00 +2°C° 0 mm 3 mps 748 mmHg 98%
    06:00 +3°C° 0 mm 2 mps 747 mmHg 98%
    07:00 +4°C° 0 mm 2 mps 747 mmHg 98%
    08:00 +4°C° 0 mm 2 mps 747 mmHg 97%
    09:00 +4°C° 0 mm 2 mps 747 mmHg 97%
    10:00 +4°C° 0 mm 2 mps 747 mmHg 96%
    11:00 +5°C° 0 mm 2 mps 746 mmHg 95%
    12:00 +5°C° 0 mm 2 mps 746 mmHg 94%
    13:00 +6°C° 0 mm 2 mps 745 mmHg 93%
    14:00 +5°C° 0 mm 3 mps 745 mmHg 93%
    15:00 +5°C° 0 mm 3 mps 744 mmHg 92%
    16:00 +5°C° 0.2 mm 3 mps 744 mmHg 94%
    17:00 +5°C° 0.2 mm 3 mps 744 mmHg 95%
    18:00 +4°C° 0.2 mm 3 mps 744 mmHg 96%
    19:00 +5°C° 0.2 mm 3 mps 743 mmHg 96%
    20:00 +5°C° 0.2 mm 3 mps 743 mmHg 96%
    21:00 +5°C° 0.2 mm 3 mps 742 mmHg 97%
    22:00 +5°C° 0.1 mm 3 mps 742 mmHg 97%
    23:00 +5°C° 0.1 mm 3 mps 741 mmHg 97%
    Show more